This demonstration page uses our WeatherBlox Daily Observations layout. Learn more.

Left ArrowRight Arrow

40.92501, -98.34201

Hourly Observations for June 16, 2015

Temp ( °F °C ) Dew Point ( °F °C ) Humidity (%) Winds ( mph kmh ) Pressure ( in mb ) Visibility ( mi km ) Precip ( " mm )
12:53 am 00:53 Clear 58 14.4 54 12.2 87 87 N 6 9 30.21 1023 10 16 0.00 0.00
1:53 am 01:53 Clear 58 14.4 54 12.2 87 87 ENE 3 6 30.19 1023 10 16 0.00 0.00
2:53 am 02:53 Clear 57 13.9 54 12.2 90 90 Calm 30.19 1023 10 16 0.00 0.00
3:53 am 03:53 Clear 56 13.3 53 11.7 90 90 Calm 30.19 1023 10 16 0.00 0.00
4:53 am 04:53 Clear 55 12.8 53 11.7 93 93 Calm 30.20 1023 10 16 0.00 0.00
5:53 am 05:53 Clear 55 12.8 52 11.1 90 90 SE 3 6 30.18 1022 10 16 0.00 0.00
6:53 am 06:53 Sunny 58 14.4 54 12.2 87 87 ESE 5 7 30.17 1022 10 16 0.00 0.00
7:53 am 07:53 Sunny 63 17.2 56 13.3 78 78 SE 7 11 30.16 1021 10 16 0.00 0.00
8:53 am 08:53 Sunny 67 19.4 54 12.2 63 63 SE 14 22 30.15 1021 10 16 0.00 0.00
9:53 am 09:53 Sunny 70 21.1 52 11.1 53 53 SE 17 28 30.16 1021 10 16 0.00 0.00
10:53 am 10:53 Sunny 72 22.2 53 11.7 52 52 SE 12 19 30.16 1021 10 16 0.00 0.00
11:53 am 11:53 Sunny 74 23.3 54 12.2 50 50 SSE 12 19 30.15 1021 10 16 0.00 0.00
12:53 pm 12:53 Sunny 76 24.4 55 12.8 48 48 SSE 12 19 30.14 1021 10 16 0.00 0.00
1:53 pm 13:53 Sunny 76 24.4 56 13.3 50 50 S 15 24 30.11 1020 10 16 0.00 0.00
2:53 pm 14:53 Sunny 77 25 57 13.9 50 50 SE 15 24 30.07 1018 10 16 0.00 0.00
3:53 pm 15:53 Sunny 78 25.6 57 13.9 48 48 SSE 12 19 30.06 1018 10 16 0.00 0.00
4:53 pm 16:53 Sunny 79 26.1 58 14.4 49 49 S 13 20 30.03 1017 10 16 0.00 0.00
5:53 pm 17:53 Sunny 79 26.1 59 15 50 50 S 12 19 30.00 1016 10 16 0.00 0.00
6:53 pm 18:53 Sunny 78 25.6 59 15 52 52 SSE 10 17 29.98 1015 10 16 0.00 0.00
7:53 pm 19:53 Sunny 77 25 59 15 54 54 S 9 15 29.97 1015 10 16 0.00 0.00
8:53 pm 20:53 Sunny 73 22.8 61 16.1 66 66 SSE 6 9 29.96 1015 10 16 0.00 0.00
9:53 pm 21:53 Clear 72 22.2 61 16.1 68 68 SSE 9 15 29.97 1015 10 16 0.00 0.00
10:53 pm 22:53 Clear 71 21.7 62 16.7 73 73 SSE 9 15 29.99 1016 10 16 0.00 0.00

Powered by AerisWeather